{"data":{"norad_id":64908,"epoch":"2026-05-24T22:46:19.432128Z","epoch_age_seconds":69560,"freshness":"FRESH","line1":"1 64908U 25157E   26144.94883602  .00012384  00000+0  40997-3 0  9993","line2":"2 64908  53.1607 351.1511 0000880 107.1428 252.9669 15.31714731 47808","mean_motion":15.31714731,"eccentricity":8.8e-5,"inclination_deg":53.1607,"raan_deg":351.1511,"arg_perigee_deg":107.1428,"mean_anomaly_deg":252.9669,"bstar":0.00040997,"rev_number":4780,"period_min":94.012283805606,"perigee_km":470.0933859218,"apogee_km":471.29878054444,"semimajor_km":6848.8330832331,"source":"CELESTRAK","updated_at":"2026-05-25T13:38:20.619816Z"}}